• En España
  • Lista de países
  • Para 7 días
  • Temperatura del agua
  • Mapa Satelital
  • El tiempo en el mapa
  • Informadores
  • user-avatar
    Iniciar sesión

    Tiempo cada hora Canberra

    Hoy, 21 Enero, Domingo

    Tiempo Temperatura Precipitaciones Viento Presión Humedad
    00:00 +22°C° 0 mm 1 mps 708 mmHg 35%
    01:00 +21°C° 0 mm 1 mps 708 mmHg 37%
    02:00 +21°C° 0 mm 1 mps 708 mmHg 36%
    03:00 +21°C° 0 mm 1 mps 707 mmHg 35%
    04:00 +20°C° 0 mm 1 mps 707 mmHg 34%
    05:00 +22°C° 0 mm 1 mps 708 mmHg 32%
    06:00 +24°C° 0 mm 1 mps 708 mmHg 29%
    07:00 +25°C° 0 mm 1 mps 709 mmHg 27%
    08:00 +29°C° 0 mm 2 mps 709 mmHg 22%
    09:00 +33°C° 0 mm 3 mps 709 mmHg 17%
    10:00 +36°C° 0 mm 3 mps 709 mmHg 12%
    11:00 +37°C° 0 mm 3 mps 709 mmHg 11%
    12:00 +38°C° 0 mm 3 mps 708 mmHg 10%
    13:00 +40°C° 0 mm 3 mps 708 mmHg 9%
    14:00 +39°C° 0 mm 3 mps 707 mmHg 9%
    15:00 +39°C° 0 mm 3 mps 707 mmHg 9%
    16:00 +39°C° 0 mm 3 mps 706 mmHg 9%
    17:00 +37°C° 0 mm 2 mps 706 mmHg 13%
    18:00 +33°C° 0 mm 1 mps 705 mmHg 17%
    19:00 +31°C° 0 mm 1 mps 705 mmHg 21%
    20:00 +29°C° 0 mm 1 mps 705 mmHg 24%
    21:00 +27°C° 0 mm 1 mps 705 mmHg 27%
    22:00 +25°C° 0 mm 1 mps 705 mmHg 30%
    23:00 +25°C° 0 mm 2 mps 705 mmHg 35%

    Mañana, 22 Enero, Lunes

    Tiempo Temperatura Precipitaciones Viento Presión Humedad
    00:00 +24°C° 0 mm 2 mps 705 mmHg 40%
    01:00 +23°C° 0 mm 2 mps 704 mmHg 44%
    02:00 +23°C° 0 mm 1 mps 704 mmHg 43%
    03:00 +23°C° 0 mm 1 mps 704 mmHg 42%
    04:00 +23°C° 0 mm 1 mps 704 mmHg 41%
    05:00 +24°C° 0 mm 2 mps 704 mmHg 39%
    06:00 +26°C° 0 mm 2 mps 705 mmHg 37%
    07:00 +27°C° 0 mm 2 mps 706 mmHg 35%
    08:00 +29°C° 0 mm 3 mps 706 mmHg 31%
    09:00 +32°C° 0 mm 4 mps 706 mmHg 28%
    10:00 +34°C° 0 mm 4 mps 706 mmHg 24%
    11:00 +35°C° 0 mm 4 mps 706 mmHg 22%
    12:00 +36°C° 0 mm 5 mps 706 mmHg 21%
    13:00 +37°C° 0 mm 5 mps 705 mmHg 19%
    14:00 +37°C° 0 mm 4 mps 705 mmHg 18%
    15:00 +38°C° 0 mm 4 mps 705 mmHg 17%
    16:00 +38°C° 0 mm 4 mps 704 mmHg 16%
    17:00 +36°C° 0 mm 4 mps 705 mmHg 19%
    18:00 +35°C° 0 mm 3 mps 705 mmHg 22%
    19:00 +33°C° 0 mm 3 mps 705 mmHg 25%
    20:00 +30°C° 0 mm 3 mps 706 mmHg 29%
    21:00 +29°C° 0 mm 2 mps 706 mmHg 33%
    22:00 +27°C° 0 mm 2 mps 706 mmHg 37%
    23:00 +26°C° 0 mm 1 mps 706 mmHg 41%

    Pasado mañana, 23 Enero, Martes

    Tiempo Temperatura Precipitaciones Viento Presión Humedad
    00:00 +26°C° 0 mm 1 mps 706 mmHg 44%
    01:00 +25°C° 0 mm 1 mps 706 mmHg 48%
    02:00 +25°C° 0,1 mm 1 mps 706 mmHg 49%
    03:00 +25°C° 0,1 mm 1 mps 705 mmHg 50%
    04:00 +25°C° 0,1 mm 1 mps 705 mmHg 52%
    05:00 +25°C° 0 mm 1 mps 706 mmHg 49%
    06:00 +26°C° 0 mm 1 mps 706 mmHg 46%
    07:00 +27°C° 0 mm 1 mps 706 mmHg 43%
    08:00 +30°C° 0 mm 2 mps 707 mmHg 36%
    09:00 +34°C° 0 mm 3 mps 707 mmHg 29%
    10:00 +36°C° 0 mm 4 mps 707 mmHg 22%
    11:00 +37°C° 0 mm 4 mps 707 mmHg 21%
    12:00 +37°C° 0 mm 4 mps 707 mmHg 20%
    13:00 +38°C° 0 mm 3 mps 706 mmHg 20%
    14:00 +37°C° 0 mm 3 mps 706 mmHg 23%
    15:00 +36°C° 0 mm 3 mps 706 mmHg 26%
    16:00 +34°C° 0 mm 2 mps 706 mmHg 29%
    17:00 +32°C° 0 mm 2 mps 706 mmHg 34%
    18:00 +30°C° 0 mm 2 mps 706 mmHg 39%
    19:00 +29°C° 0 mm 1 mps 706 mmHg 44%
    20:00 +27°C° 0 mm 1 mps 706 mmHg 52%
    21:00 +25°C° 0 mm 1 mps 706 mmHg 60%
    22:00 +23°C° 0 mm 1 mps 706 mmHg 67%
    23:00 +23°C° 0,3 mm 1 mps 706 mmHg 73%

    24 Enero, Miércoles

    Tiempo Temperatura Precipitaciones Viento Presión Humedad
    00:00 +22°C° 0,3 mm 1 mps 706 mmHg 78%
    01:00 +21°C° 0,3 mm 1 mps 706 mmHg 83%
    02:00 +21°C° 0,2 mm 1 mps 706 mmHg 82%
    03:00 +21°C° 0,2 mm 1 mps 706 mmHg 81%
    04:00 +21°C° 0,2 mm 1 mps 706 mmHg 81%
    05:00 +23°C° 0 mm 1 mps 706 mmHg 75%
    06:00 +24°C° 0 mm 1 mps 707 mmHg 68%
    07:00 +25°C° 0 mm 1 mps 707 mmHg 62%
    08:00 +28°C° 0 mm 2 mps 707 mmHg 50%
    09:00 +32°C° 0 mm 2 mps 707 mmHg 38%
    10:00 +36°C° 0 mm 2 mps 708 mmHg 26%
    11:00 +37°C° 0 mm 2 mps 707 mmHg 23%
    12:00 +38°C° 0 mm 2 mps 707 mmHg 21%
    13:00 +40°C° 0 mm 2 mps 707 mmHg 19%
    14:00 +38°C° 0 mm 3 mps 706 mmHg 21%
    15:00 +37°C° 0 mm 3 mps 706 mmHg 24%
    16:00 +36°C° 0 mm 3 mps 705 mmHg 26%
    17:00 +34°C° 0,1 mm 3 mps 705 mmHg 33%
    18:00 +31°C° 0,1 mm 2 mps 705 mmHg 39%
    19:00 +29°C° 0,1 mm 2 mps 705 mmHg 45%
    20:00 +28°C° 0 mm 2 mps 705 mmHg 54%
    21:00 +26°C° 0 mm 2 mps 706 mmHg 63%
    22:00 +24°C° 0 mm 3 mps 706 mmHg 73%
    23:00 +24°C° 0 mm 2 mps 706 mmHg 77%

    25 Enero, Jueves

    Tiempo Temperatura Precipitaciones Viento Presión Humedad
    00:00 +23°C° 0 mm 2 mps 706 mmHg 81%
    01:00 +21°C° 0 mm 2 mps 706 mmHg 86%
    02:00 +21°C° 0 mm 2 mps 706 mmHg 86%
    03:00 +22°C° 0 mm 1 mps 706 mmHg 87%
    04:00 +21°C° 0 mm 1 mps 705 mmHg 87%
    05:00 +22°C° 0 mm 1 mps 706 mmHg 83%
    06:00 +23°C° 0 mm 1 mps 706 mmHg 79%
    07:00 +24°C° 0 mm 1 mps 707 mmHg 74%
    08:00 +26°C° 0 mm 2 mps 707 mmHg 63%
    09:00 +29°C° 0 mm 2 mps 707 mmHg 53%
    10:00 +32°C° 0 mm 2 mps 708 mmHg 42%
    11:00 +34°C° 0 mm 2 mps 707 mmHg 39%
    12:00 +35°C° 0 mm 2 mps 707 mmHg 36%
    13:00 +36°C° 0 mm 3 mps 707 mmHg 32%
    14:00 +35°C° 0 mm 2 mps 706 mmHg 34%
    15:00 +35°C° 0 mm 2 mps 706 mmHg 35%
    16:00 +34°C° 0 mm 2 mps 705 mmHg 36%
    17:00 +31°C° 0,4 mm 2 mps 706 mmHg 44%
    18:00 +29°C° 0,4 mm 2 mps 706 mmHg 53%
    19:00 +28°C° 0,4 mm 3 mps 706 mmHg 61%
    20:00 +26°C° 0,7 mm 2 mps 706 mmHg 67%
    21:00 +25°C° 0,7 mm 2 mps 707 mmHg 72%
    22:00 +24°C° 0,7 mm 1 mps 707 mmHg 78%
    23:00 +24°C° 0,1 mm 1 mps 707 mmHg 79%

    26 Enero, Viernes

    Tiempo Temperatura Precipitaciones Viento Presión Humedad
    00:00 +23°C° 0,1 mm 1 mps 706 mmHg 80%
    01:00 +23°C° 0,1 mm 1 mps 706 mmHg 81%
    02:00 +22°C° 0,1 mm 1 mps 706 mmHg 82%
    03:00 +22°C° 0,1 mm 1 mps 706 mmHg 83%
    04:00 +21°C° 0,1 mm 1 mps 706 mmHg 84%
    05:00 +22°C° 0 mm 1 mps 707 mmHg 80%
    06:00 +23°C° 0 mm 1 mps 707 mmHg 77%
    07:00 +24°C° 0 mm 1 mps 708 mmHg 73%
    08:00 +27°C° 0 mm 1 mps 708 mmHg 63%
    09:00 +30°C° 0 mm 2 mps 708 mmHg 53%
    10:00 +32°C° 0 mm 2 mps 709 mmHg 42%
    11:00 +35°C° 0 mm 2 mps 709 mmHg 38%
    12:00 +36°C° 0 mm 2 mps 708 mmHg 34%
    13:00 +37°C° 0 mm 2 mps 708 mmHg 31%
    14:00 +35°C° 1,8 mm 3 mps 708 mmHg 41%
    15:00 +33°C° 1,8 mm 3 mps 707 mmHg 51%
    16:00 +29°C° 1,8 mm 3 mps 706 mmHg 61%
    17:00 +28°C° 3,3 mm 3 mps 707 mmHg 68%
    18:00 +26°C° 3,3 mm 3 mps 707 mmHg 75%
    19:00 +25°C° 3,3 mm 2 mps 708 mmHg 82%
    20:00 +24°C° 0,5 mm 2 mps 708 mmHg 83%
    21:00 +24°C° 0,5 mm 2 mps 708 mmHg 85%
    22:00 +23°C° 0,5 mm 1 mps 708 mmHg 87%
    23:00 +23°C° 0,1 mm 1 mps 708 mmHg 89%
    Mostrar más